Willimantic, CT

9:26 AM EDT on September 19, 2019 (GMT -0400)
Windham

Weather History for KIJD - August, 2019

Change the Weather History Date:

Wednesday, August 21, 2019

  Actual Average Record
Temperature  
Mean Temperature 74 °F -  
Max Temperature 84 °F 79 °F 93 °F (1955)
Min Temperature 63 °F 53 °F 40 °F (1981)
Cooling Degree Days 8    
Growing Degree Days 24 (Base 50)    
Moisture  
Dew Point 70 °F    
Average Humidity 92    
Maximum Humidity 97    
Minimum Humidity 69    
Precipitation  
Precipitation 1.30 in - - ()
Sea Level Pressure  
Sea Level Pressure 29.93 in    
Wind  
Wind Speed 3 mph ()    
Max Wind Speed 15 mph    
Max Gust Speed 25 mph    
Visibility 7.6 miles    
Events Fog , Rain , Thunderstorm    
Averages and records for this station are not official NWS values.
T = Trace of Precipitation, MM = Missing Value Source: Averaged Metar Reports

Daily Weather History Graph

Daily Weather History Graph

Search for Another Location

Airport or City:

Astronomy

Aug. 21, 2019 Rise Set
Actual Time 6:03 AM EDT 7:40 PM EDT
Civil Twilight 5:33 AM EDT 8:09 PM EDT
Nautical Twilight 4:57 AM EDT 8:44 PM EDT
Astronomical Twilight 4:19 AM EDT 9:22 PM EDT
Moon 10:51 PM EDT (8/21) 11:40 AM EDT (8/21)
Length of Visible Light 14h 35m
Length of Day
13h 37m
Waning Gibbous, 69% of the Moon is Illuminated
Aug 21
Waning Gibbous
Aug 23
Last Quarter
Aug 30
New
Sep 5
First Quarter
Sep 14
Full

Hourly Weather History & Observations

Time (EDT) Temp. Heat Index Dew Point Humidity Pressure Visibility Wind Dir Wind Speed Gust Speed Precip Events Conditions
12:52 AM 66.9 °F - 64.0 °F 90% 30.06 in 10.0 mi Calm Calm - N/A   Clear
1:52 AM 66.0 °F - 64.0 °F 93% 30.06 in 10.0 mi ENE 4.6 mph - N/A   Clear
2:52 AM 64.9 °F - 63.0 °F 93% 30.05 in 10.0 mi NNE 3.5 mph - N/A   Clear
3:52 AM 64.0 °F - 62.1 °F 93% 30.04 in 10.0 mi Calm Calm - N/A   Clear
4:52 AM 64.0 °F - 62.1 °F 93% 30.03 in 10.0 mi Calm Calm - N/A   Clear
5:52 AM 63.0 °F - 62.1 °F 97% 30.02 in 10.0 mi North 3.5 mph - N/A   Clear
6:32 AM 64.0 °F - 62.1 °F 93% 30.02 in 10.0 mi NE 3.5 mph - N/A   Scattered Clouds
6:41 AM 64.0 °F - 62.1 °F 93% 30.03 in 10.0 mi North 4.6 mph - N/A   Mostly Cloudy
6:52 AM 64.0 °F - 63.0 °F 96% 30.02 in 10.0 mi NE 3.5 mph - N/A   Overcast
7:52 AM 66.9 °F - 64.9 °F 93% 30.02 in 7.0 mi NE 3.5 mph - N/A   Overcast
8:38 AM 68.0 °F - 66.9 °F 96% 30.02 in 6.0 mi Calm Calm - N/A   Overcast
8:52 AM 68.0 °F - 66.9 °F 96% 30.01 in 7.0 mi Calm Calm - N/A   Overcast
9:07 AM 70.0 °F - 66.9 °F 90% 30.01 in 7.0 mi Calm Calm - N/A   Overcast
9:52 AM 72.0 °F - 69.1 °F 91% 30.00 in 8.0 mi Calm Calm - N/A   Overcast
10:52 AM 78.1 °F - 73.0 °F 84% 29.97 in 10.0 mi SSE 8.1 mph - N/A   Overcast
11:23 AM 80.1 °F 84.2 °F 73.0 °F 79% 29.96 in 10.0 mi South 11.5 mph - N/A   Mostly Cloudy
11:52 AM 81.0 °F 85.8 °F 73.0 °F 77% 29.94 in 10.0 mi South 8.1 mph - N/A   Mostly Cloudy
12:52 PM 81.0 °F 86.2 °F 73.9 °F 79% 29.93 in 10.0 mi South 10.4 mph - N/A   Overcast
1:52 PM 84.0 °F 90.2 °F 73.0 °F 69% 29.91 in 10.0 mi South 12.7 mph - N/A   Scattered Clouds
2:25 PM 80.1 °F 85.1 °F 75.0 °F 85% 29.91 in 6.0 mi South 9.2 mph - 0.03 in Rain , Thunderstorm Light Thunderstorms and Rain
2:36 PM 77.0 °F - 73.0 °F 88% 29.92 in 2.5 mi South 15.0 mph - 0.09 in Rain , Thunderstorm Heavy Thunderstorms and Rain
2:43 PM 77.0 °F - 72.0 °F 84% 29.91 in 3.0 mi South 5.8 mph - 0.10 in Rain , Thunderstorm Light Rain
2:52 PM 77.0 °F - 73.0 °F 88% 29.91 in 9.0 mi Calm Calm - 0.10 in Rain , Thunderstorm Light Rain
3:00 PM 75.9 °F - 73.9 °F 94% 29.90 in 8.0 mi North 5.8 mph - 0.00 in Rain , Thunderstorm Light Thunderstorms and Rain
3:12 PM 75.0 °F - 73.0 °F 94% 29.93 in 1.5 mi West 12.7 mph 18.4 mph 0.11 in Rain , Thunderstorm Light Thunderstorms and Rain
3:18 PM 72.0 °F - 69.1 °F 91% 29.92 in 0.5 mi Variable 5.8 mph 23.0 mph 0.39 in Fog , Rain , Thunderstorm Heavy Thunderstorms and Rain
3:31 PM 71.1 °F - 69.1 °F 93% 29.91 in 1.0 mi ENE 8.1 mph - 0.69 in Rain , Thunderstorm Heavy Thunderstorms and Rain
3:40 PM 72.0 °F - 70.0 °F 93% 29.90 in 3.0 mi Calm Calm - 0.70 in Rain , Thunderstorm Light Thunderstorms and Rain
3:52 PM 72.0 °F - 70.0 °F 93% 29.90 in 10.0 mi South 3.5 mph - 0.70 in Thunderstorm Thunderstorm
3:56 PM 73.0 °F - 70.0 °F 90% 29.90 in 10.0 mi Calm Calm - N/A   Overcast
4:06 PM 73.0 °F - 70.0 °F 90% 29.90 in 10.0 mi Calm Calm - N/A   Mostly Cloudy
4:15 PM 73.9 °F - 72.0 °F 93% 29.90 in 10.0 mi Calm Calm - N/A   Mostly Cloudy
4:52 PM 75.9 °F - 73.0 °F 91% 29.88 in 10.0 mi Calm Calm - N/A   Mostly Cloudy
5:52 PM 75.9 °F - 73.9 °F 94% 29.87 in 10.0 mi South 3.5 mph - 0.00 in Rain Light Rain
6:07 PM 75.9 °F - 73.9 °F 94% 29.86 in 10.0 mi South 5.8 mph - 0.00 in Thunderstorm Partly Cloudy
6:25 PM 77.0 °F - 73.9 °F 90% 29.88 in 9.0 mi SSW 3.5 mph - 0.00 in Rain , Thunderstorm Light Thunderstorms and Rain
6:44 PM 75.9 °F - 75.0 °F 97% 29.88 in 8.0 mi WNW 8.1 mph - 0.01 in Thunderstorm Thunderstorm
6:48 PM 75.2 °F - 73.4 °F 94% 29.86 in 2.5 mi North 11.5 mph 25.3 mph 0.08 in Rain , Thunderstorm Heavy Thunderstorms and Rain
6:52 PM 75.0 °F - 72.0 °F 90% 29.87 in 2.5 mi WSW 9.2 mph 25.3 mph 0.08 in Rain , Thunderstorm Light Thunderstorms and Rain
7:02 PM 75.0 °F - 72.0 °F 90% 29.88 in 6.0 mi SW 5.8 mph - 0.01 in Rain , Thunderstorm Light Thunderstorms and Rain
7:06 PM 73.9 °F - 72.0 °F 93% 29.88 in 0.8 mi Calm Calm - 0.12 in Rain , Thunderstorm Heavy Thunderstorms and Rain
7:18 PM 73.0 °F - 72.0 °F 96% 29.87 in 3.0 mi East 3.5 mph - 0.21 in Rain , Thunderstorm Light Thunderstorms and Rain
7:52 PM 72.0 °F - 71.1 °F 97% 29.86 in 10.0 mi Calm Calm - 0.25 in Rain , Thunderstorm Light Rain
7:59 PM 72.0 °F - 71.1 °F 97% 29.86 in 10.0 mi NNE 3.5 mph - 0.00 in Rain Light Rain
8:20 PM 72.0 °F - 71.1 °F 97% 29.87 in 10.0 mi Calm Calm - 0.01 in Thunderstorm Overcast
8:40 PM 73.0 °F - 72.0 °F 96% 29.87 in 10.0 mi Calm Calm - 0.01 in   Mostly Cloudy
8:52 PM 72.0 °F - 71.1 °F 97% 29.88 in 9.0 mi Calm Calm - 0.01 in   Scattered Clouds
9:36 PM 72.0 °F - 69.1 °F 91% 29.91 in 1.8 mi WSW 5.8 mph - 0.14 in Rain Heavy Rain
9:45 PM 71.1 °F - 69.1 °F 93% 29.90 in 3.0 mi Variable 4.6 mph - 0.16 in Rain Rain
9:52 PM 71.1 °F - 69.1 °F 93% 29.89 in 6.0 mi South 5.8 mph - 0.16 in Rain Light Rain
10:49 PM 71.6 °F - 69.8 °F 94% 29.90 in 10.0 mi South 3.5 mph - 0.00 in   Mostly Cloudy
10:52 PM 71.1 °F - 70.0 °F 96% 29.89 in 10.0 mi Calm Calm - 0.00 in   Mostly Cloudy
11:02 PM 71.1 °F - 70.0 °F 96% 29.89 in 10.0 mi Calm Calm - N/A   Overcast
11:52 PM 70.0 °F - 69.1 °F 97% 29.88 in 9.0 mi Calm Calm - N/A   Clear